Погода в Международном аэропорту Терранс Летсом

Британские Виргинские острова     18°25′40″N   64°37′37″W
темп.,
°C
ветер,
м/с
пор.,
м/с
влажн.,
%
обл.,
%
осадки,
мм/ч
давл.,
гПа
погр.,
м
20 января, чт
чт2023:00+26в910730 0.2 10191124
02:00+26в1011710 0.2 10181203
05:00+26всв1010731 0.7 10171100
08:00+26в910730 0.8 10191125
11:00+26в1011710 0.1 10201141
14:00+26в99690 0.2 10171225
17:00+26всв89750 0.1 10171021
20:00+26в1011750 0.3 10181051
21 января, пт
пт2123:00+26в1011750 0.1 10181076
02:00+25в101173100 0.3 10171287
05:00+26в1011665 0.1 10161361
08:00+26в910736 0.3 10181172
11:00+26в10117285 0.5 10191260
14:00+26в910660 0.6 10171339
17:00+26в910660 0.0 10161353
20:00+26в1010650 0.0 10171308
22 января, сб
сб2223:00+26в911670 0.0 10171356
02:00+25в910680 0.0 10161174
05:00+25в78740 0.1 10151021
08:00+26в78720 0.3 10171060
11:00+26в78761 0.5 1018854
14:00+26в89740 1.2 10151029
17:00+26в78760 0.2 1015918
20:00+26всв88751 0.4 1016960
23 января, вс
вс2323:00+25всв99750 0.0 1016960
02:00+25всв88721 0.1 10151032
05:00+25всв77681 0.0 10141000
08:00+25в77650 0.0 10161082
11:00+25в66630 0.0 10161068
14:00+25вюв55590 0.0 1014956
17:00+25вюв55595 0.0 1013918
20:00+25вюв55554 0.0 1014951
24 января, пн
пн2423:00+25вюв44600 0.0 1014964
02:00+25вюв34670 0.0 1013920
05:00+25вюв34681 0.0 1013971
08:00+25вюв34660 0.0 1015859
11:00+25вюв457618 0.0 1016781
14:00+25вюв557614 0.1 1013774
17:00+25в557610 0.1 1013758
20:00+25в66766 0.1 1015837